datetime,flow
1955-10-01,270.0
1955-10-02,270.0
1955-10-03,270.0
1955-10-04,270.0
1955-10-05,270.0
1955-10-06,260.0
1955-10-07,260.0
1955-10-08,260.0
1955-10-09,260.0
1955-10-10,260.0
1955-10-11,260.0
1955-10-12,260.0
1955-10-13,260.0
1955-10-14,260.0
1955-10-15,280.0
1955-10-16,280.0
1955-10-17,280.0
1955-10-18,280.0
1955-10-19,280.0
1955-10-20,280.0
1955-10-21,250.0
1955-10-22,250.0
1955-10-23,250.0
1955-10-24,250.0
1955-10-25,250.0
1955-10-26,250.0
1955-10-27,240.0
1955-10-28,240.0
1955-10-29,240.0
1955-10-30,240.0
1955-10-31,240.0
1955-11-01,221.0
1955-11-02,203.0
1955-11-03,252.0
1955-11-04,307.0
1955-11-05,307.0
1955-11-06,252.0
1955-11-07,212.0
1955-11-08,203.0
1955-11-09,230.0
1955-11-10,230.0
1955-11-11,263.0
1955-11-12,296.0
1955-11-13,307.0
1955-11-14,285.0
1955-11-15,241.0
1955-11-16,230.0
1955-11-17,221.0
1955-11-18,252.0
1955-11-19,285.0
1955-11-20,296.0
1955-11-21,296.0
1955-11-22,221.0
1955-11-23,263.0
1955-11-24,252.0
1955-11-25,185.0
1955-11-26,194.0
1955-11-27,285.0
1955-11-28,203.0
1955-11-29,212.0
1955-11-30,285.0
1955-12-01,329.0
1955-12-02,351.0
1955-12-03,241.0
1955-12-04,203.0
1955-12-05,176.0
1955-12-06,176.0
1955-12-07,212.0
1955-12-08,167.0
1955-12-09,176.0
1955-12-10,252.0
1955-12-11,203.0
1955-12-12,194.0
1955-12-13,203.0
1955-12-14,167.0
1955-12-15,203.0
1955-12-16,263.0
1955-12-17,252.0
1955-12-18,240.0
1955-12-19,230.0
1955-12-20,212.0
1955-12-21,220.0
1955-12-22,212.0
1955-12-23,220.0
1955-12-24,230.0
1955-12-25,250.0
1955-12-26,260.0
1955-12-27,270.0
1955-12-28,290.0
1955-12-29,290.0
1955-12-30,300.0
1955-12-31,290.0
1956-01-01,250.0
1956-01-02,220.0
1956-01-03,200.0
1956-01-04,190.0
1956-01-05,176.0
1956-01-06,203.0
1956-01-07,230.0
1956-01-08,212.0
1956-01-09,203.0
1956-01-10,212.0
1956-01-11,230.0
1956-01-12,212.0
1956-01-13,212.0
1956-01-14,241.0
1956-01-15,241.0
1956-01-16,263.0
1956-01-17,252.0
1956-01-18,241.0
1956-01-19,263.0
1956-01-20,221.0
1956-01-21,252.0
1956-01-22,263.0
1956-01-23,285.0
1956-01-24,263.0
1956-01-25,221.0
1956-01-26,221.0
1956-01-27,274.0
1956-01-28,307.0
1956-01-29,450.0
1956-01-30,329.0
1956-01-31,307.0
1956-02-01,296.0
1956-02-02,296.0
1956-02-03,185.0
1956-02-04,167.0
1956-02-05,185.0
1956-02-06,203.0
1956-02-07,252.0
1956-02-08,307.0
1956-02-09,285.0
1956-02-10,241.0
1956-02-11,230.0
1956-02-12,212.0
1956-02-13,221.0
1956-02-14,274.0
1956-02-15,296.0
1956-02-16,351.0
1956-02-17,330.0
1956-02-18,280.0
1956-02-19,260.0
1956-02-20,250.0
1956-02-21,230.0
1956-02-22,274.0
1956-02-23,263.0
1956-02-24,307.0
1956-02-25,263.0
1956-02-26,285.0
1956-02-27,241.0
1956-02-28,252.0
1956-02-29,241.0
1956-03-01,329.0
1956-03-02,522.0
1956-03-03,666.0
1956-03-04,690.0
1956-03-05,690.0
1956-03-06,654.0
1956-03-07,642.0
1956-03-08,546.0
1956-03-09,474.0
1956-03-10,522.0
1956-03-11,654.0
1956-03-12,654.0
1956-03-13,558.0
1956-03-14,498.0
1956-03-15,417.0
1956-03-16,384.0
1956-03-17,373.0
1956-03-18,384.0
1956-03-19,582.0
1956-03-20,654.0
1956-03-21,820.0
1956-03-22,932.0
1956-03-23,1080.0
1956-03-24,1300.0
1956-03-25,1500.0
1956-03-26,1850.0
1956-03-27,2000.0
1956-03-28,1800.0
1956-03-29,1400.0
1956-03-30,1430.0
1956-03-31,1570.0
1956-04-01,1730.0
1956-04-02,1680.0
1956-04-03,1390.0
1956-04-04,1160.0
1956-04-05,1030.0
1956-04-06,973.0
1956-04-07,1020.0
1956-04-08,1060.0
1956-04-09,1100.0
1956-04-10,1140.0
1956-04-11,1240.0
1956-04-12,1240.0
1956-04-13,1260.0
1956-04-14,1390.0
1956-04-15,1300.0
1956-04-16,1290.0
1956-04-17,1260.0
1956-04-18,1340.0
1956-04-19,1300.0
1956-04-20,1230.0
1956-04-21,1240.0
1956-04-22,1240.0
1956-04-23,1130.0
1956-04-24,1270.0
1956-04-25,1430.0
1956-04-26,1540.0
1956-04-27,1840.0
1956-04-28,2050.0
1956-04-29,1700.0
1956-04-30,1400.0
1956-05-01,1320.0
1956-05-02,1430.0
1956-05-03,1820.0
1956-05-04,2160.0
1956-05-05,2320.0
1956-05-06,3050.0
1956-05-07,3440.0
1956-05-08,3120.0
1956-05-09,3160.0
1956-05-10,2870.0
1956-05-11,2390.0
1956-05-12,2210.0
1956-05-13,2310.0
1956-05-14,2470.0
1956-05-15,2320.0
1956-05-16,2000.0
1956-05-17,2030.0
1956-05-18,2630.0
1956-05-19,3320.0
1956-05-20,3520.0
1956-05-21,3900.0
1956-05-22,3800.0
1956-05-23,3700.0
1956-05-24,3500.0
1956-05-25,3200.0
1956-05-26,3220.0
1956-05-27,3280.0
1956-05-28,3040.0
1956-05-29,3200.0
1956-05-30,3400.0
1956-05-31,3620.0
1956-06-01,3900.0
1956-06-02,4020.0
1956-06-03,4200.0
1956-06-04,4100.0
1956-06-05,3800.0
1956-06-06,3660.0
1956-06-07,3500.0
1956-06-08,3130.0
1956-06-09,2820.0
1956-06-10,2720.0
1956-06-11,2590.0
1956-06-12,2500.0
1956-06-13,2320.0
1956-06-14,2050.0
1956-06-15,1850.0
1956-06-16,1820.0
1956-06-17,1490.0
1956-06-18,1270.0
1956-06-19,1070.0
1956-06-20,1010.0
1956-06-21,899.0
1956-06-22,833.0
1956-06-23,720.0
1956-06-24,660.0
1956-06-25,620.0
1956-06-26,600.0
1956-06-27,536.0
1956-06-28,488.0
1956-06-29,488.0
1956-06-30,472.0
1956-07-01,528.0
1956-07-02,584.0
1956-07-03,620.0
1956-07-04,584.0
1956-07-05,528.0
1956-07-06,496.0
1956-07-07,432.0
1956-07-08,395.0
1956-07-09,380.0
1956-07-10,365.0
1956-07-11,352.0
1956-07-12,300.0
1956-07-13,244.0
1956-07-14,238.0
1956-07-15,226.0
1956-07-16,203.0
1956-07-17,186.0
1956-07-18,175.0
1956-07-19,170.0
1956-07-20,175.0
1956-07-21,165.0
1956-07-22,150.0
1956-07-23,179.0
1956-07-24,419.0
1956-07-25,226.0
1956-07-26,209.0
1956-07-27,226.0
1956-07-28,234.0
1956-07-29,384.0
1956-07-30,247.0
1956-07-31,1160.0
1956-08-01,1600.0
1956-08-02,842.0
1956-08-03,642.0
1956-08-04,547.0
1956-08-05,419.0
1956-08-06,340.0
1956-08-07,274.0
1956-08-08,234.0
1956-08-09,190.0
1956-08-10,194.0
1956-08-11,164.0
1956-08-12,150.0
1956-08-13,136.0
1956-08-14,126.0
1956-08-15,120.0
1956-08-16,908.0
1956-08-17,1180.0
1956-08-18,464.0
1956-08-19,600.0
1956-08-20,528.0
1956-08-21,410.0
1956-08-22,402.0
1956-08-23,326.0
1956-08-24,250.0
1956-08-25,244.0
1956-08-26,209.0
1956-08-27,313.0
1956-08-28,281.0
1956-08-29,232.0
1956-08-30,203.0
1956-08-31,215.0
1956-09-01,192.0
1956-09-02,165.0
1956-09-03,140.0
1956-09-04,145.0
1956-09-05,160.0
1956-09-06,145.0
1956-09-07,125.0
1956-09-08,125.0
1956-09-09,125.0
1956-09-10,108.0
1956-09-11,94.0
1956-09-12,100.0
1956-09-13,80.0
1956-09-14,60.0
1956-09-15,50.0
1956-09-16,57.0
1956-09-17,57.0
1956-09-18,81.0
1956-09-19,77.0
1956-09-20,81.0
1956-09-21,81.0
1956-09-22,77.0
1956-09-23,81.0
1956-09-24,81.0
1956-09-25,86.0
1956-09-26,73.0
1956-09-27,77.0
1956-09-28,90.0
1956-09-29,86.0
1956-09-30,94.0
1956-10-01,98.0
1956-10-02,112.0
1956-10-03,107.0
1956-10-04,112.0
1956-10-05,121.0
1956-10-06,121.0
1956-10-07,112.0
1956-10-08,112.0
1956-10-09,116.0
1956-10-10,107.0
1956-10-11,103.0
1956-10-12,116.0
1956-10-13,125.0
1956-10-14,130.0
1956-10-15,140.0
1956-10-16,145.0
1956-10-17,140.0
1956-10-18,174.0
1956-10-19,150.0
1956-10-20,140.0
1956-10-21,140.0
1956-10-22,150.0
1956-10-23,156.0
1956-10-24,162.0
1956-10-25,251.0
1956-10-26,265.0
1956-10-27,230.0
1956-10-28,202.0
1956-10-29,251.0
1956-10-30,313.0
1956-10-31,305.0
1956-11-01,305.0
1956-11-02,321.0
1956-11-03,313.0
1956-11-04,244.0
1956-11-05,188.0
1956-11-06,162.0
1956-11-07,168.0
1956-11-08,150.0
1956-11-09,174.0
1956-11-10,168.0
1956-11-11,162.0
1956-11-12,145.0
1956-11-13,168.0
1956-11-14,145.0
1956-11-15,125.0
1956-11-16,103.0
1956-11-17,116.0
1956-11-18,107.0
1956-11-19,116.0
1956-11-20,130.0
1956-11-21,140.0
1956-11-22,150.0
1956-11-23,140.0
1956-11-24,162.0
1956-11-25,181.0
1956-11-26,195.0
1956-11-27,209.0
1956-11-28,188.0
1956-11-29,174.0
1956-11-30,181.0
1956-12-01,202.0
1956-12-02,202.0
1956-12-03,209.0
1956-12-04,209.0
1956-12-05,195.0
1956-12-06,209.0
1956-12-07,209.0
1956-12-08,188.0
1956-12-09,125.0
1956-12-10,120.0
1956-12-11,125.0
1956-12-12,170.0
1956-12-13,162.0
1956-12-14,188.0
1956-12-15,140.0
1956-12-16,94.0
1956-12-17,140.0
1956-12-18,130.0
1956-12-19,98.0
1956-12-20,98.0
1956-12-21,112.0
1956-12-22,120.0
1956-12-23,110.0
1956-12-24,100.0
1956-12-25,100.0
1956-12-26,100.0
1956-12-27,110.0
1956-12-28,140.0
1956-12-29,160.0
1956-12-30,170.0
1956-12-31,190.0
1957-01-01,195.0
1957-01-02,202.0
1957-01-03,195.0
1957-01-04,202.0
1957-01-05,251.0
1957-01-06,237.0
1957-01-07,195.0
1957-01-08,251.0
1957-01-09,244.0
1957-01-10,390.0
1957-01-11,313.0
1957-01-12,281.0
1957-01-13,297.0
1957-01-14,313.0
1957-01-15,390.0
1957-01-16,372.0
1957-01-17,281.0
1957-01-18,265.0
1957-01-19,188.0
1957-01-20,174.0
1957-01-21,188.0
1957-01-22,202.0
1957-01-23,168.0
1957-01-24,181.0
1957-01-25,244.0
1957-01-26,251.0
1957-01-27,195.0
1957-01-28,181.0
1957-01-29,209.0
1957-01-30,156.0
1957-01-31,135.0
1957-02-01,125.0
1957-02-02,130.0
1957-02-03,156.0
1957-02-04,135.0
1957-02-05,145.0
1957-02-06,195.0
1957-02-07,209.0
1957-02-08,265.0
1957-02-09,258.0
1957-02-10,313.0
1957-02-11,354.0
1957-02-12,817.0
1957-02-13,1040.0
1957-02-14,843.0
1957-02-15,923.0
1957-02-16,950.0
1957-02-17,950.0
1957-02-18,1060.0
1957-02-19,882.0
1957-02-20,843.0
1957-02-21,869.0
1957-02-22,843.0
1957-02-23,923.0
1957-02-24,1050.0
1957-02-25,1090.0
1957-02-26,951.0
1957-02-27,869.0
1957-02-28,804.0
1957-03-01,830.0
1957-03-02,1120.0
1957-03-03,1150.0
1957-03-04,1120.0
1957-03-05,729.0
1957-03-06,601.0
1957-03-07,505.0
1957-03-08,408.0
1957-03-09,515.0
1957-03-10,705.0
1957-03-11,1240.0
1957-03-12,1140.0
1957-03-13,1010.0
1957-03-14,830.0
1957-03-15,612.0
1957-03-16,601.0
1957-03-17,634.0
1957-03-18,693.0
1957-03-19,693.0
1957-03-20,741.0
1957-03-21,951.0
1957-03-22,1150.0
1957-03-23,1140.0
1957-03-24,765.0
1957-03-25,590.0
1957-03-26,568.0
1957-03-27,645.0
1957-03-28,923.0
1957-03-29,1060.0
1957-03-30,1300.0
1957-03-31,1480.0
1957-04-01,1560.0
1957-04-02,1500.0
1957-04-03,1020.0
1957-04-04,693.0
1957-04-05,623.0
1957-04-06,557.0
1957-04-07,612.0
1957-04-08,791.0
1957-04-09,729.0
1957-04-10,1080.0
1957-04-11,1740.0
1957-04-12,2290.0
1957-04-13,2780.0
1957-04-14,3090.0
1957-04-15,3260.0
1957-04-16,3650.0
1957-04-17,3510.0
1957-04-18,3760.0
1957-04-19,3320.0
1957-04-20,2840.0
1957-04-21,2430.0
1957-04-22,2660.0
1957-04-23,2840.0
1957-04-24,2410.0
1957-04-25,2200.0
1957-04-26,2030.0
1957-04-27,1670.0
1957-04-28,1540.0
1957-04-29,1420.0
1957-04-30,1450.0
1957-05-01,1610.0
1957-05-02,1840.0
1957-05-03,2250.0
1957-05-04,2910.0
1957-05-05,3260.0
1957-05-06,3580.0
1957-05-07,4230.0
1957-05-08,5260.0
1957-05-09,5310.0
1957-05-10,4780.0
1957-05-11,5310.0
1957-05-12,5420.0
1957-05-13,4430.0
1957-05-14,3670.0
1957-05-15,3210.0
1957-05-16,3260.0
1957-05-17,2870.0
1957-05-18,2820.0
1957-05-19,2840.0
1957-05-20,3260.0
1957-05-21,4400.0
1957-05-22,3360.0
1957-05-23,3340.0
1957-05-24,3190.0
1957-05-25,2820.0
1957-05-26,2660.0
1957-05-27,2700.0
1957-05-28,3030.0
1957-05-29,4180.0
1957-05-30,5230.0
1957-05-31,5470.0
1957-06-01,5720.0
1957-06-02,6150.0
1957-06-03,7050.0
1957-06-04,8440.0
1957-06-05,9700.0
1957-06-06,10300.0
1957-06-07,10600.0
1957-06-08,9420.0
1957-06-09,9140.0
1957-06-10,9460.0
1957-06-11,8720.0
1957-06-12,7700.0
1957-06-13,6990.0
1957-06-14,7400.0
1957-06-15,7600.0
1957-06-16,6300.0
1957-06-17,5260.0
1957-06-18,5150.0
1957-06-19,5980.0
1957-06-20,7240.0
1957-06-21,8610.0
1957-06-22,8190.0
1957-06-23,7740.0
1957-06-24,8050.0
1957-06-25,8580.0
1957-06-26,8920.0
1957-06-27,8780.0
1957-06-28,8720.0
1957-06-29,9140.0
1957-06-30,8960.0
1957-07-01,8580.0
1957-07-02,8190.0
1957-07-03,7500.0
1957-07-04,6900.0
1957-07-05,6500.0
1957-07-06,5750.0
1957-07-07,5040.0
1957-07-08,4730.0
1957-07-09,4990.0
1957-07-10,4780.0
1957-07-11,4060.0
1957-07-12,3430.0
1957-07-13,3090.0
1957-07-14,2910.0
1957-07-15,2680.0
1957-07-16,2340.0
1957-07-17,2460.0
1957-07-18,2950.0
1957-07-19,2870.0
1957-07-20,3630.0
1957-07-21,3230.0
1957-07-22,2820.0
1957-07-23,2630.0
1957-07-24,2860.0
1957-07-25,3190.0
1957-07-26,8760.0
1957-07-27,18400.0
1957-07-28,13800.0
1957-07-29,8440.0
1957-07-30,6920.0
1957-07-31,6270.0
1957-08-01,5470.0
1957-08-02,3540.0
1957-08-03,4260.0
1957-08-04,3920.0
1957-08-05,5890.0
1957-08-06,6400.0
1957-08-07,6800.0
1957-08-08,5800.0
1957-08-09,2990.0
1957-08-10,2610.0
1957-08-11,2370.0
1957-08-12,2360.0
1957-08-13,2610.0
1957-08-14,2050.0
1957-08-15,2150.0
1957-08-16,3440.0
1957-08-17,3770.0
1957-08-18,3000.0
1957-08-19,2480.0
1957-08-20,2200.0
1957-08-21,1950.0
1957-08-22,1680.0
1957-08-23,1520.0
1957-08-24,1460.0
1957-08-25,2080.0
1957-08-26,1540.0
1957-08-27,1670.0
1957-08-28,1490.0
1957-08-29,1290.0
1957-08-30,2610.0
1957-08-31,5830.0
1957-09-01,3900.0
1957-09-02,2780.0
1957-09-03,2360.0
1957-09-04,2050.0
1957-09-05,1830.0
1957-09-06,1670.0
1957-09-07,1430.0
1957-09-08,1290.0
1957-09-09,1220.0
1957-09-10,1150.0
1957-09-11,1070.0
1957-09-12,991.0
1957-09-13,947.0
1957-09-14,881.0
1957-09-15,840.0
1957-09-16,725.0
1957-09-17,707.0
1957-09-18,840.0
1957-09-19,840.0
1957-09-20,810.0
1957-09-21,790.0
1957-09-22,716.0
1957-09-23,680.0
1957-09-24,680.0
1957-09-25,716.0
1957-09-26,734.0
1957-09-27,743.0
1957-09-28,632.0
1957-09-29,640.0
1957-09-30,672.0
1957-10-01,646.0
1957-10-02,570.0
1957-10-03,606.0
1957-10-04,626.0
1957-10-05,656.0
1957-10-06,656.0
1957-10-07,597.0
1957-10-08,616.0
1957-10-09,739.0
1957-10-10,686.0
1957-10-11,676.0
1957-10-12,853.0
1957-10-13,1170.0
1957-10-14,1590.0
1957-10-15,1280.0
1957-10-16,1130.0
1957-10-17,1020.0
1957-10-18,991.0
1957-10-19,3540.0
1957-10-20,3120.0
1957-10-21,3610.0
1957-10-22,4740.0
1957-10-23,2340.0
1957-10-24,1320.0
1957-10-25,1130.0
1957-10-26,1080.0
1957-10-27,926.0
1957-10-28,991.0
1957-10-29,964.0
1957-10-30,951.0
1957-10-31,841.0
1957-11-01,914.0
1957-11-02,1100.0
1957-11-03,1070.0
1957-11-04,1200.0
1957-11-05,1800.0
1957-11-06,2050.0
1957-11-07,2090.0
1957-11-08,1630.0
1957-11-09,1470.0
1957-11-10,1400.0
1957-11-11,1370.0
1957-11-12,1340.0
1957-11-13,1340.0
1957-11-14,1340.0
1957-11-15,1320.0
1957-11-16,1310.0
1957-11-17,1370.0
1957-11-18,1290.0
1957-11-19,1190.0
1957-11-20,1130.0
1957-11-21,1060.0
1957-11-22,1080.0
1957-11-23,926.0
1957-11-24,938.0
1957-11-25,1000.0
1957-11-26,1040.0
1957-11-27,1110.0
1957-11-28,964.0
1957-11-29,666.0
1957-11-30,656.0
1957-12-01,570.0
1957-12-02,626.0
1957-12-03,902.0
1957-12-04,795.0
1957-12-05,878.0
1957-12-06,951.0
1957-12-07,938.0
1957-12-08,890.0
1957-12-09,841.0
1957-12-10,964.0
1957-12-11,926.0
1957-12-12,902.0
1957-12-13,890.0
1957-12-14,926.0
1957-12-15,951.0
1957-12-16,1040.0
1957-12-17,1260.0
1957-12-18,1140.0
1957-12-19,938.0
1957-12-20,717.0
1957-12-21,636.0
1957-12-22,552.0
1957-12-23,561.0
1957-12-24,579.0
1957-12-25,588.0
1957-12-26,476.0
1957-12-27,468.0
1957-12-28,452.0
1957-12-29,415.0
1957-12-30,444.0
1957-12-31,422.0
1958-01-01,394.0
1958-01-02,340.0
1958-01-03,360.0
1958-01-04,380.0
1958-01-05,400.0
1958-01-06,429.0
1958-01-07,444.0
1958-01-08,408.0
1958-01-09,429.0
1958-01-10,410.0
1958-01-11,400.0
1958-01-12,394.0
1958-01-13,394.0
1958-01-14,370.0
1958-01-15,370.0
1958-01-16,360.0
1958-01-17,350.0
1958-01-18,350.0
1958-01-19,350.0
1958-01-20,340.0
1958-01-21,340.0
1958-01-22,330.0
1958-01-23,330.0
1958-01-24,320.0
1958-01-25,350.0
1958-01-26,370.0
1958-01-27,380.0
1958-01-28,390.0
1958-01-29,390.0
1958-01-30,380.0
1958-01-31,380.0
1958-02-01,360.0
1958-02-02,340.0
1958-02-03,315.0
1958-02-04,353.0
1958-02-05,500.0
1958-02-06,1330.0
1958-02-07,1170.0
1958-02-08,750.0
1958-02-09,795.0
1958-02-10,1130.0
1958-02-11,1030.0
1958-02-12,773.0
1958-02-13,666.0
1958-02-14,534.0
1958-02-15,492.0
1958-02-16,561.0
1958-02-17,1050.0
1958-02-18,1200.0
1958-02-19,1440.0
1958-02-20,1600.0
1958-02-21,1800.0
1958-02-22,2200.0
1958-02-23,2000.0
1958-02-24,2150.0
1958-02-25,2150.0
1958-02-26,1950.0
1958-02-27,1510.0
1958-02-28,938.0
1958-03-01,706.0
1958-03-02,666.0
1958-03-03,606.0
1958-03-04,588.0
1958-03-05,636.0
1958-03-06,597.0
1958-03-07,636.0
1958-03-08,773.0
1958-03-09,817.0
1958-03-10,806.0
1958-03-11,666.0
1958-03-12,717.0
1958-03-13,706.0
1958-03-14,706.0
1958-03-15,762.0
1958-03-16,784.0
1958-03-17,1400.0
1958-03-18,1900.0
1958-03-19,2100.0
1958-03-20,1820.0
1958-03-21,1880.0
1958-03-22,2430.0
1958-03-23,3990.0
1958-03-24,3360.0
1958-03-25,2950.0
1958-03-26,2840.0
1958-03-27,2560.0
1958-03-28,2540.0
1958-03-29,1980.0
1958-03-30,1610.0
1958-03-31,1960.0
1958-04-01,2170.0
1958-04-02,2210.0
1958-04-03,2280.0
1958-04-04,2070.0
1958-04-05,1940.0
1958-04-06,1840.0
1958-04-07,2110.0
1958-04-08,2360.0
1958-04-09,2700.0
1958-04-10,3120.0
1958-04-11,3510.0
1958-04-12,3140.0
1958-04-13,2650.0
1958-04-14,2860.0
1958-04-15,4010.0
1958-04-16,5830.0
1958-04-17,6750.0
1958-04-18,9380.0
1958-04-19,10200.0
1958-04-20,9380.0
1958-04-21,8900.0
1958-04-22,8830.0
1958-04-23,8650.0
1958-04-24,6980.0
1958-04-25,6050.0
1958-04-26,5190.0
1958-04-27,5960.0
1958-04-28,6820.0
1958-04-29,6300.0
1958-04-30,5830.0
1958-05-01,5580.0
1958-05-02,5520.0
1958-05-03,5340.0
1958-05-04,5490.0
1958-05-05,5990.0
1958-05-06,6820.0
1958-05-07,7660.0
1958-05-08,8110.0
1958-05-09,8150.0
1958-05-10,8110.0
1958-05-11,7830.0
1958-05-12,8220.0
1958-05-13,8830.0
1958-05-14,7760.0
1958-05-15,6880.0
1958-05-16,6780.0
1958-05-17,6880.0
1958-05-18,7220.0
1958-05-19,7830.0
1958-05-20,8110.0
1958-05-21,8110.0
1958-05-22,7730.0
1958-05-23,7450.0
1958-05-24,8080.0
1958-05-25,8870.0
1958-05-26,9240.0
1958-05-27,9050.0
1958-05-28,9090.0
1958-05-29,9310.0
1958-05-30,9160.0
1958-05-31,9050.0
1958-06-01,8400.0
1958-06-02,7940.0
1958-06-03,7660.0
1958-06-04,7390.0
1958-06-05,6880.0
1958-06-06,7050.0
1958-06-07,8430.0
1958-06-08,7690.0
1958-06-09,7110.0
1958-06-10,6460.0
1958-06-11,5770.0
1958-06-12,5130.0
1958-06-13,4540.0
1958-06-14,4010.0
1958-06-15,3770.0
1958-06-16,3770.0
1958-06-17,3670.0
1958-06-18,3560.0
1958-06-19,3340.0
1958-06-20,3240.0
1958-06-21,3240.0
1958-06-22,3190.0
1958-06-23,2930.0
1958-06-24,2540.0
1958-06-25,2280.0
1958-06-26,2090.0
1958-06-27,1880.0
1958-06-28,1680.0
1958-06-29,1470.0
1958-06-30,1390.0
1958-07-01,1290.0
1958-07-02,1190.0
1958-07-03,1060.0
1958-07-04,1000.0
1958-07-05,914.0
1958-07-06,841.0
1958-07-07,806.0
1958-07-08,750.0
1958-07-09,646.0
1958-07-10,588.0
1958-07-11,806.0
1958-07-12,762.0
1958-07-13,616.0
1958-07-14,468.0
1958-07-15,452.0
1958-07-16,408.0
1958-07-17,401.0
1958-07-18,408.0
1958-07-19,422.0
1958-07-20,484.0
1958-07-21,468.0
1958-07-22,394.0
1958-07-23,340.0
1958-07-24,355.0
1958-07-25,360.0
1958-07-26,415.0
1958-07-27,460.0
1958-07-28,476.0
1958-07-29,429.0
1958-07-30,373.0
1958-07-31,360.0
1958-08-01,340.0
1958-08-02,353.0
1958-08-03,360.0
1958-08-04,334.0
1958-08-05,334.0
1958-08-06,415.0
1958-08-07,516.0
1958-08-08,508.0
1958-08-09,508.0
1958-08-10,492.0
1958-08-11,476.0
1958-08-12,429.0
1958-08-13,429.0
1958-08-14,394.0
1958-08-15,408.0
1958-08-16,401.0
1958-08-17,468.0
1958-08-18,597.0
1958-08-19,508.0
1958-08-20,508.0
1958-08-21,579.0
1958-08-22,1170.0
1958-08-23,1030.0
1958-08-24,817.0
1958-08-25,646.0
1958-08-26,579.0
1958-08-27,543.0
1958-08-28,492.0
1958-08-29,444.0
1958-08-30,452.0
1958-08-31,429.0
1958-09-01,373.0
1958-09-02,334.0
1958-09-03,315.0
1958-09-04,264.0
1958-09-05,242.0
1958-09-06,242.0
1958-09-07,291.0
1958-09-08,321.0
1958-09-09,353.0
1958-09-10,321.0
1958-09-11,340.0
1958-09-12,360.0
1958-09-13,808.0
1958-09-14,2740.0
1958-09-15,1630.0
1958-09-16,1070.0
1958-09-17,890.0
1958-09-18,762.0
1958-09-19,666.0
1958-09-20,646.0
1958-09-21,616.0
1958-09-22,543.0
1958-09-23,516.0
1958-09-24,516.0
1958-09-25,597.0
1958-09-26,676.0
1958-09-27,606.0
1958-09-28,570.0
1958-09-29,516.0
1958-09-30,516.0
1958-10-01,495.0
1958-10-02,477.0
1958-10-03,444.0
1958-10-04,444.0
1958-10-05,444.0
1958-10-06,452.0
1958-10-07,460.0
1958-10-08,452.0
1958-10-09,396.0
1958-10-10,381.0
1958-10-11,381.0
1958-10-12,367.0
1958-10-13,367.0
1958-10-14,360.0
1958-10-15,353.0
1958-10-16,325.0
1958-10-17,312.0
1958-10-18,300.0
1958-10-19,300.0
1958-10-20,300.0
1958-10-21,288.0
1958-10-22,300.0
1958-10-23,310.0
1958-10-24,320.0
1958-10-25,415.0
1958-10-26,450.0
1958-10-27,600.0
1958-10-28,500.0
1958-10-29,550.0
1958-10-30,600.0
1958-10-31,550.0
1958-11-01,500.0
1958-11-02,468.0
1958-11-03,381.0
1958-11-04,339.0
1958-11-05,318.0
1958-11-06,306.0
1958-11-07,306.0
1958-11-08,294.0
1958-11-09,294.0
1958-11-10,300.0
1958-11-11,294.0
1958-11-12,282.0
1958-11-13,270.0
1958-11-14,294.0
1958-11-15,300.0
1958-11-16,300.0
1958-11-17,306.0
1958-11-18,250.0
1958-11-19,200.0
1958-11-20,200.0
1958-11-21,220.0
1958-11-22,270.0
1958-11-23,300.0
1958-11-24,290.0
1958-11-25,290.0
1958-11-26,290.0
1958-11-27,290.0
1958-11-28,260.0
1958-11-29,230.0
1958-11-30,200.0
1958-12-01,210.0
1958-12-02,223.0
1958-12-03,233.0
1958-12-04,243.0
1958-12-05,248.0
1958-12-06,276.0
1958-12-07,243.0
1958-12-08,238.0
1958-12-09,238.0
1958-12-10,248.0
1958-12-11,248.0
1958-12-12,238.0
1958-12-13,233.0
1958-12-14,210.0
1958-12-15,140.0
1958-12-16,150.0
1958-12-17,160.0
1958-12-18,170.0
1958-12-19,180.0
1958-12-20,200.0
1958-12-21,200.0
1958-12-22,180.0
1958-12-23,170.0
1958-12-24,160.0
1958-12-25,150.0
1958-12-26,150.0
1958-12-27,150.0
1958-12-28,150.0
1958-12-29,150.0
1958-12-30,160.0
1958-12-31,140.0
1959-01-01,140.0
1959-01-02,140.0
1959-01-03,140.0
1959-01-04,120.0
1959-01-05,110.0
1959-01-06,110.0
1959-01-07,120.0
1959-01-08,130.0
1959-01-09,150.0
1959-01-10,170.0
1959-01-11,180.0
1959-01-12,180.0
1959-01-13,180.0
1959-01-14,180.0
1959-01-15,180.0
1959-01-16,160.0
1959-01-17,150.0
1959-01-18,130.0
1959-01-19,120.0
1959-01-20,110.0
1959-01-21,110.0
1959-01-22,110.0
1959-01-23,120.0
1959-01-24,130.0
1959-01-25,140.0
1959-01-26,160.0
1959-01-27,170.0
1959-01-28,170.0
1959-01-29,160.0
1959-01-30,150.0
1959-01-31,150.0
1959-02-01,150.0
1959-02-02,150.0
1959-02-03,150.0
1959-02-04,170.0
1959-02-05,210.0
1959-02-06,210.0
1959-02-07,210.0
1959-02-08,210.0
1959-02-09,210.0
1959-02-10,210.0
1959-02-11,205.0
1959-02-12,210.0
1959-02-13,243.0
1959-02-14,200.0
1959-02-15,176.0
1959-02-16,200.0
1959-02-17,196.0
1959-02-18,238.0
1959-02-19,450.0
1959-02-20,420.0
1959-02-21,370.0
1959-02-22,380.0
1959-02-23,330.0
1959-02-24,248.0
1959-02-25,238.0
1959-02-26,253.0
1959-02-27,238.0
1959-02-28,243.0
1959-03-01,258.0
1959-03-02,276.0
1959-03-03,318.0
1959-03-04,374.0
1959-03-05,404.0
1959-03-06,300.0
1959-03-07,264.0
1959-03-08,233.0
1959-03-09,248.0
1959-03-10,258.0
1959-03-11,253.0
1959-03-12,294.0
1959-03-13,243.0
1959-03-14,228.0
1959-03-15,294.0
1959-03-16,288.0
1959-03-17,258.0
1959-03-18,258.0
1959-03-19,294.0
1959-03-20,374.0
1959-03-21,367.0
1959-03-22,282.0
1959-03-23,258.0
1959-03-24,318.0
1959-03-25,367.0
1959-03-26,367.0
1959-03-27,339.0
1959-03-28,325.0
1959-03-29,318.0
1959-03-30,325.0
1959-03-31,353.0
1959-04-01,312.0
1959-04-02,325.0
1959-04-03,374.0
1959-04-04,600.0
1959-04-05,590.0
1959-04-06,700.0
1959-04-07,888.0
1959-04-08,1160.0
1959-04-09,1160.0
1959-04-10,804.0
1959-04-11,580.0
1959-04-12,495.0
1959-04-13,468.0
1959-04-14,460.0
1959-04-15,452.0
1959-04-16,495.0
1959-04-17,460.0
1959-04-18,460.0
1959-04-19,460.0
1959-04-20,444.0
1959-04-21,428.0
1959-04-22,396.0
1959-04-23,374.0
1959-04-24,332.0
1959-04-25,468.0
1959-04-26,636.0
1959-04-27,846.0
1959-04-28,1130.0
1959-04-29,1080.0
1959-04-30,902.0
1959-05-01,1000.0
1959-05-02,1410.0
1959-05-03,1260.0
1959-05-04,1360.0
1959-05-05,1160.0
1959-05-06,960.0
1959-05-07,846.0
1959-05-08,790.0
1959-05-09,916.0
1959-05-10,888.0
1959-05-11,804.0
1959-05-12,916.0
1959-05-13,1380.0
1959-05-14,1560.0
1959-05-15,2080.0
1959-05-16,2410.0
1959-05-17,2370.0
1959-05-18,2210.0
1959-05-19,2040.0
1959-05-20,1820.0
1959-05-21,1510.0
1959-05-22,1260.0
1959-05-23,1100.0
1959-05-24,1050.0
1959-05-25,1160.0
1959-05-26,1110.0
1959-05-27,1000.0
1959-05-28,1060.0
1959-05-29,1340.0
1959-05-30,1690.0
1959-05-31,1820.0
1959-06-01,1860.0
1959-06-02,1840.0
1959-06-03,1650.0
1959-06-04,1710.0
1959-06-05,1710.0
1959-06-06,1780.0
1959-06-07,2100.0
1959-06-08,2260.0
1959-06-09,2190.0
1959-06-10,2040.0
1959-06-11,1800.0
1959-06-12,1650.0
1959-06-13,1510.0
1959-06-14,1530.0
1959-06-15,1860.0
1959-06-16,1710.0
1959-06-17,1440.0
1959-06-18,1260.0
1959-06-19,1220.0
1959-06-20,1210.0
1959-06-21,1210.0
1959-06-22,1160.0
1959-06-23,1130.0
1959-06-24,1050.0
1959-06-25,945.0
1959-06-26,846.0
1959-06-27,776.0
1959-06-28,730.0
1959-06-29,659.0
1959-06-30,580.0
1959-07-01,452.0
1959-07-02,346.0
1959-07-03,318.0
1959-07-04,282.0
1959-07-05,253.0
1959-07-06,228.0
1959-07-07,243.0
1959-07-08,228.0
1959-07-09,233.0
1959-07-10,243.0
1959-07-11,208.0
1959-07-12,180.0
1959-07-13,158.0
1959-07-14,129.0